Theta_e
306 306 305 305 305 305 305 305 304 305 305 305 305 306 306 306 307 308 308 308 308 309 310 312 314 316 318 319 320 320 320 320 320 320 321 321 321 321 321 322 323 325 327 327 328 328 328 327 327 326 326 327 326 326 326 326 326 327 327 327 328 327 327
306 306 306 306 306 306 305 305 305 304 305 305 305 306 307 308 309 309 309 309 309 309 309 310 311 313 314 315 316 316 317 317 316 316 317 318 319 319 319 320 321 322 324 326 327 327 326 326 326 326 327 327 327 326 326 327 327 326 326 326 327 327 327
307 307 307 307 307 306 306 305 305 304 304 303 304 305 306 308 309 310 310 311 310 311 311 311 311 312 312 312 312 312 312 312 312 312 312 313 314 315 317 317 318 319 320 322 323 323 323 323 323 324 325 325 325 325 326 326 327 327 327 327 326 326 326
308 308 308 308 308 307 306 306 305 305 304 303 303 303 304 306 308 310 311 312 312 312 313 314 314 314 314 313 312 311 310 309 309 308 309 309 310 311 313 314 315 316 317 317 318 318 318 319 318 319 320 320 320 322 323 323 324 325 326 327 327 326 326
309 309 309 309 308 307 307 306 306 306 305 305 304 303 303 304 307 310 311 312 312 312 312 312 312 312 311 311 310 310 309 308 307 307 308 309 310 310 311 311 312 313 314 315 315 315 315 315 315 315 315 315 315 315 316 317 318 319 321 323 324 325 326
309 309 309 309 309 308 308 308 307 307 306 306 306 305 304 304 305 307 308 309 309 309 308 308 308 308 308 308 308 307 306 306 306 306 307 308 309 310 310 311 311 311 312 313 313 313 313 313 313 314 313 313 313 312 311 311 311 312 313 315 316 318 322
310 310 310 309 309 309 309 309 308 307 307 306 306 306 306 306 306 307 308 308 308 307 306 307 307 308 307 307 307 306 306 305 305 305 305 305 306 307 308 309 310 311 312 312 312 312 312 312 312 313 314 314 313 312 310 309 309 309 309 310 311 312 315
310 310 310 310 310 310 310 310 309 307 307 306 306 306 306 306 307 308 308 308 308 307 307 307 308 308 308 308 308 307 307 307 306 306 305 305 304 304 304 305 307 310 311 312 312 312 313 313 313 314 314 315 314 313 313 311 309 309 309 309 310 310 312
311 311 311 311 311 311 311 311 310 308 307 307 307 307 306 306 306 306 306 306 306 306 307 308 308 309 309 309 309 308 308 307 307 307 307 307 307 306 305 304 305 306 308 310 311 312 312 313 314 315 315 314 314 314 314 313 311 311 311 312 312 311 313
311 311 311 311 311 312 312 312 310 308 307 307 307 307 307 306 306 306 305 306 306 306 306 306 307 307 307 307 307 307 306 307 307 307 308 308 308 307 307 307 306 306 306 306 308 309 311 312 313 313 314 314 314 314 314 313 313 312 312 313 314 315 315
311 312 312 311 312 313 313 313 311 309 308 308 307 307 307 306 306 306 306 306 306 306 306 306 306 306 306 306 306 306 306 306 306 307 307 308 308 307 307 308 308 307 307 306 306 307 308 309 310 311 312 313 313 313 313 313 313 312 311 311 312 313 314
311 312 312 312 312 313 314 313 311 309 308 308 307 307 307 307 307 307 307 307 307 306 306 306 305 305 305 305 305 305 305 305 306 306 307 307 307 307 307 308 308 308 307 307 306 306 306 306 307 308 309 310 311 312 312 312 312 311 310 311 311 310 311
311 312 312 312 313 314 314 313 311 309 309 308 307 307 307 307 307 307 307 307 307 306 306 305 304 303 304 304 304 303 304 304 304 305 306 306 307 307 307 307 307 307 307 307 306 306 306 306 306 306 306 307 308 309 310 311 312 311 310 310 310 309 309
312 313 313 313 314 314 314 313 312 310 308 308 308 308 308 308 308 307 307 307 306 306 305 305 304 303 302 303 302 302 302 302 302 303 303 304 305 306 306 306 306 306 306 306 306 306 306 306 306 306 306 305 305 306 307 308 309 309 309 309 310 309 309
313 313 313 314 314 314 314 314 312 310 308 308 308 308 308 308 308 308 307 307 306 306 305 304 304 303 302 301 301 301 301 301 302 302 302 303 303 304 305 305 306 306 306 306 306 306 306 306 306 306 306 306 306 306 305 306 306 306 306 307 307 307 307
313 314 314 314 314 314 314 314 312 310 308 308 308 308 308 308 308 308 307 306 306 305 305 304 303 302 301 300 300 300 302 303 303 303 303 303 303 303 304 304 304 305 305 305 305 305 305 305 305 305 305 305 305 305 305 305 305 305 305 305 305 305 304
314 314 314 314 315 315 314 314 312 309 308 308 308 308 308 308 308 308 307 306 306 305 304 304 302 301 300 300 302 303 304 304 305 304 304 304 304 304 304 304 304 304 304 304 304 304 304 304 304 304 304 304 304 304 304 304 304 304 305 305 305 305 305
314 314 314 314 315 315 314 314 311 309 308 308 308 308 308 308 308 307 307 306 305 305 304 302 301 300 301 303 304 304 305 305 305 305 304 304 304 304 304 304 304 304 304 304 304 304 304 304 304 304 305 305 305 305 305 305 305 305 305 305 305 306 306
315 315 314 315 315 315 315 314 311 309 308 308 308 308 308 308 308 307 306 305 305 304 303 301 301 302 304 305 305 305 305 305 305 304 304 305 305 304 305 305 305 304 304 305 305 305 305 305 305 305 305 305 304 304 304 304 304 304 304 304 305 305 306
316 315 315 315 315 315 314 313 311 309 308 308 308 308 308 308 307 306 306 305 305 304 301 300 302 304 305 305 305 305 305 304 304 304 304 304 305 305 305 305 305 305 305 305 306 306 306 306 306 306 305 304 304 303 303 302 302 302 303 303 304 304 305
317 317 316 316 315 315 315 313 311 309 308 308 308 308 307 307 306 306 305 305 304 302 300 301 303 305 305 305 305 304 304 304 304 304 304 304 305 305 305 306 306 306 306 306 306 306 306 306 306 305 305 304 303 302 301 301 302 302 302 302 303 303 304
317 318 317 317 315 315 315 312 310 309 309 308 308 308 307 306 306 305 305 304 303 301 301 303 304 305 305 304 304 304 304 304 304 305 305 305 305 305 305 306 306 306 306 306 306 306 306 305 304 303 303 303 302 301 301 301 301 301 301 302 302 302 303
317 318 318 317 316 315 314 311 310 309 309 308 308 307 307 306 306 305 304 302 300 300 302 303 304 304 304 304 304 305 304 304 305 305 306 306 305 306 306 306 306 307 306 306 306 306 306 305 304 303 303 303 302 302 301 301 301 300 300 300 301 301 302
315 318 318 316 315 314 313 310 309 309 308 308 308 307 306 306 305 304 302 300 299 300 301 302 303 304 304 304 304 305 305 305 305 305 306 306 306 306 306 306 306 307 306 306 306 306 305 305 305 304 304 303 303 302 301 300 300 300 300 300 300 300 300
315 317 317 316 314 313 312 309 309 309 308 307 307 306 306 306 304 302 300 298 297 298 300 301 303 304 304 304 304 304 304 305 305 305 305 305 305 305 306 305 305 306 306 305 304 305 304 304 304 303 302 302 302 301 300 300 299 299 299 300 299 299 299
315 317 316 314 313 312 311 309 309 308 308 307 306 306 306 305 303 300 298 296 295 297 299 302 303 304 304 304 304 304 304 304 304 304 304 304 304 304 304 304 304 305 305 304 303 302 301 300 300 300 299 300 300 300 300 300 300 300 299 299 299 300 300
315 317 316 314 313 312 309 309 308 308 307 307 306 306 305 303 301 299 296 294 294 296 299 302 303 303 303 303 303 304 304 304 304 303 302 302 302 302 302 302 303 304 304 303 301 299 298 298 298 298 298 298 298 299 299 299 300 301 300 300 299 300 300
316 317 316 314 312 311 309 308 308 308 307 306 306 305 304 302 301 298 295 293 293 295 298 301 303 303 303 303 303 304 304 304 303 302 301 300 300 300 300 302 302 302 301 300 298 297 298 298 298 297 297 297 298 298 298 299 299 300 300 300 299 299 300
316 317 315 313 312 311 310 308 308 307 307 306 306 305 304 302 300 297 294 293 293 295 297 300 301 302 303 302 303 303 303 303 302 301 299 299 299 299 299 301 301 300 299 298 297 297 298 298 298 298 299 299 299 299 299 299 299 299 299 300 300 300 300
317 315 313 312 312 310 309 308 308 307 307 306 305 304 303 302 299 295 293 292 292 294 296 297 299 301 301 301 302 302 303 302 301 300 299 299 299 299 299 300 300 299 299 298 298 298 299 299 299 300 300 300 300 300 300 300 300 300 300 300 300 300 300
316 314 312 313 312 309 308 308 308 307 307 306 305 304 303 301 297 294 293 292 292 293 294 295 297 299 300 300 301 302 302 301 300 300 299 299 300 300 300 300 299 299 299 298 299 299 300 300 300 300 301 301 301 301 301 300 300 301 301 300 301 300 300
315 314 314 313 311 309 308 308 307 307 306 306 305 304 302 299 295 293 293 292 292 293 294 294 295 297 298 299 300 301 302 301 301 300 300 300 300 300 300 300 299 299 299 299 299 300 300 300 301 301 301 301 301 301 300 300 300 301 301 300 301 301 301
313 313 313 312 310 308 308 308 307 307 306 305 305 304 301 298 294 293 293 292 292 292 293 293 294 295 297 297 298 300 301 301 301 301 301 301 300 300 299 299 299 299 299 300 300 300 300 300 300 300 300 300 300 301 300 300 300 300 300 301 301 301 301
313 312 312 311 309 308 308 308 307 307 306 305 304 303 300 296 293 293 293 292 292 292 292 292 293 294 295 296 296 297 298 300 300 300 300 299 299 298 298 298 298 298 298 299 299 299 299 299 299 298 297 297 298 299 300 300 300 300 301 301 301 301 301
312 312 312 310 309 308 308 308 307 307 306 305 304 302 299 296 293 293 293 292 292 292 292 292 292 293 294 294 294 294 294 296 297 297 297 297 297 296 296 295 295 295 296 296 297 297 298 298 297 296 295 295 295 297 299 301 301 301 301 301 301 301 301
313 312 312 310 309 308 308 307 307 306 305 305 303 301 298 295 294 293 293 293 292 292 292 292 292 292 292 292 293 292 292 292 293 293 294 294 294 293 293 293 292 292 292 292 293 294 295 296 296 296 295 294 293 293 296 299 301 301 301 301 301 301 301
314 313 312 310 308 308 308 307 307 306 305 304 303 300 298 295 294 294 294 293 292 292 292 292 292 292 292 291 291 291 291 291 291 291 291 291 291 291 291 291 291 290 290 290 290 291 292 293 293 294 294 293 293 292 293 295 299 301 301 300 300 300 300
Wind_Speed
4 4 4 5 6 6 6 7 7 7 7 7 7 8 8 9 9 10 10 11 12 13 14 15 15 15 15 15 15 15 16 17 18 18 17 17 16 15 14 14 14 15 15 15 15 15 16 21 24 22 19 20 19 19 19 18 18 20 21 22 22 22 23
3 3 3 4 4 4 5 6 6 6 6 6 7 7 8 9 10 10 11 11 12 12 13 14 15 15 15 15 15 15 16 17 18 18 18 18 18 17 16 16 15 15 15 15 16 16 16 19 23 24 23 21 20 19 16 16 16 17 18 19 20 21 22
3 3 2 2 2 3 5 5 6 7 7 7 7 7 8 9 9 10 11 11 11 12 12 12 13 14 14 15 15 15 15 15 15 15 16 16 17 17 17 17 17 17 17 17 17 17 18 19 21 24 25 25 25 23 19 17 17 17 17 16 16 17 18
3 2 1 1 3 5 6 7 7 8 8 8 7 7 7 8 9 10 10 11 11 12 12 13 13 14 14 14 14 14 14 14 14 14 14 14 14 15 15 16 17 17 17 17 18 18 18 19 21 25 28 28 30 31 27 24 23 22 20 17 16 16 15
3 2 1 2 4 6 7 8 9 10 10 9 8 7 6 6 7 8 9 9 10 10 11 12 12 12 13 13 13 12 12 13 13 13 13 13 14 13 13 14 15 16 16 17 18 18 18 18 19 24 28 28 30 33 32 30 29 28 25 23 21 19 17
4 3 1 2 4 5 7 8 10 12 12 11 9 8 6 5 5 6 7 7 7 8 8 8 8 8 9 9 10 10 11 11 12 13 13 14 14 14 14 15 15 16 16 16 17 18 17 17 18 21 24 25 28 32 33 31 32 31 30 28 26 24 22
6 4 3 2 4 6 8 10 12 13 12 12 10 10 8 7 6 5 6 6 7 7 7 7 7 7 8 8 9 9 9 10 10 11 12 13 14 16 16 16 16 16 16 16 16 17 17 18 19 19 21 22 25 29 30 30 30 30 29 27 25 25 24
8 6 4 2 3 5 9 11 13 13 12 11 11 10 10 9 8 8 8 8 8 8 8 7 8 8 10 10 10 11 10 11 11 11 12 12 13 14 15 16 16 17 17 16 16 16 16 17 18 18 18 20 24 26 27 28 29 28 27 25 23 22 21
9 7 4 2 2 5 8 11 13 13 12 11 11 11 12 11 9 9 9 9 9 8 8 8 8 9 11 11 12 12 12 12 12 13 13 13 13 13 14 14 15 16 17 17 16 16 16 16 17 17 17 18 21 24 25 27 28 26 24 22 20 19 17
10 7 4 2 0 4 7 10 12 13 12 12 12 13 13 11 10 9 10 10 10 10 10 10 11 12 13 13 14 14 13 13 12 13 14 14 14 14 14 14 14 14 15 15 15 16 16 17 17 18 18 18 19 22 23 25 27 26 24 21 20 19 18
11 8 5 3 1 3 6 9 12 12 12 13 14 13 12 10 10 10 11 12 13 14 15 16 16 16 17 17 17 16 15 14 13 14 14 15 15 14 14 14 14 14 14 14 15 15 16 17 18 18 19 19 19 21 22 24 28 29 26 24 23 23 24
12 9 7 5 3 3 6 9 11 12 12 13 13 12 11 10 10 12 13 14 15 17 18 19 19 19 18 17 17 17 16 15 15 15 16 16 16 15 15 15 16 17 17 17 17 17 17 17 18 19 20 20 20 22 23 25 30 32 29 27 28 28 29
12 11 9 6 4 4 6 9 11 12 12 13 12 11 10 10 11 12 13 15 16 18 20 21 20 18 17 16 16 16 16 16 16 17 17 18 18 18 18 18 19 20 20 21 21 21 21 21 21 21 22 22 22 23 25 26 30 35 34 32 33 33 31
12 11 10 8 5 5 7 9 12 13 13 12 12 11 11 11 12 13 14 16 17 20 21 21 21 19 18 17 18 18 18 18 17 17 18 19 20 21 21 22 22 23 23 24 24 24 24 24 24 25 24 25 25 24 26 28 31 37 38 36 35 36 34
12 12 11 8 6 6 8 10 12 13 12 12 12 11 12 12 13 14 15 17 19 21 22 23 22 22 21 21 20 20 19 18 18 17 18 19 20 21 23 24 25 25 26 26 26 27 27 27 27 28 27 27 28 27 26 28 31 36 40 40 38 39 38
13 12 11 8 7 8 9 11 13 13 12 12 12 12 13 13 14 15 17 19 21 22 23 24 25 25 24 22 20 19 18 18 17 17 17 18 20 21 22 23 25 26 27 28 28 28 29 29 29 29 29 29 29 29 28 28 30 33 38 40 39 39 39
14 13 11 9 8 9 10 12 14 13 12 12 12 13 13 14 15 17 19 21 22 23 25 26 26 25 22 20 19 18 17 17 17 17 17 18 19 20 22 23 24 25 26 27 28 28 27 27 27 27 27 27 26 27 26 26 28 30 34 38 38 37 37
15 14 12 10 9 10 12 14 15 13 12 12 12 13 14 14 16 18 20 22 23 25 27 27 26 23 20 19 18 18 17 17 17 17 18 18 19 20 21 22 22 23 24 24 24 24 23 22 22 22 22 22 22 23 23 23 24 26 29 33 35 35 34
16 16 14 12 11 12 13 15 15 13 12 13 13 13 13 15 17 19 21 22 24 26 28 27 24 21 20 19 19 19 19 18 18 17 17 18 19 19 20 21 21 21 21 21 21 21 20 19 19 19 19 19 19 20 21 22 22 23 25 28 31 32 31
18 17 15 14 14 14 16 16 15 13 13 13 14 14 14 16 17 19 21 23 25 27 27 24 22 20 19 19 19 19 19 19 18 17 16 16 17 18 18 19 19 18 18 18 18 17 17 17 18 18 18 19 19 19 19 18 17 19 23 24 25 27 27
19 18 17 17 16 16 17 17 15 13 13 14 14 14 15 17 18 19 21 23 26 26 24 22 20 19 18 18 18 19 19 18 17 16 16 16 16 15 15 15 15 16 16 16 16 15 15 15 16 17 18 19 19 17 17 17 16 17 20 21 21 22 23
21 20 19 19 19 19 18 17 14 13 13 13 13 14 16 17 18 20 22 24 25 23 22 20 19 18 18 18 18 18 18 17 17 16 16 17 17 16 15 14 13 13 14 14 14 14 14 14 14 15 16 18 18 17 18 19 19 19 21 21 22 22 23
22 21 21 21 21 20 19 16 14 13 12 12 13 14 16 17 19 21 23 23 22 20 19 18 18 18 18 18 18 17 17 16 16 17 17 18 19 18 16 15 13 12 12 13 13 13 13 14 14 14 16 17 18 19 21 22 23 23 23 23 23 23 25
23 22 21 22 22 21 18 16 13 12 12 12 13 14 16 17 20 22 22 21 19 17 17 17 17 17 17 17 17 16 16 16 16 17 18 19 18 17 15 13 12 13 13 13 13 13 13 14 15 15 16 17 18 20 22 23 25 26 26 25 25 25 26
25 23 21 22 23 21 17 15 13 12 12 12 13 14 16 17 20 21 20 18 16 16 16 16 16 15 15 15 15 15 15 16 16 17 18 17 16 14 13 11 10 13 15 14 14 14 14 15 16 17 18 19 20 21 22 23 25 26 27 28 28 27 28
26 23 21 23 23 19 17 15 13 12 12 13 13 14 16 17 19 18 17 15 15 15 16 15 15 15 15 15 15 16 16 16 16 17 16 15 14 13 11 10 10 13 15 15 16 16 17 17 18 19 20 20 21 21 22 23 24 25 26 28 29 30 29
26 23 21 23 22 18 16 14 13 12 13 13 14 15 16 17 17 16 15 14 14 15 15 14 14 15 15 15 16 17 17 17 16 16 15 13 12 12 12 12 13 15 16 16 17 18 18 17 17 17 17 17 17 16 16 16 18 21 23 25 26 27 26
23 21 22 23 20 17 15 14 14 13 13 13 14 14 15 16 16 15 13 14 14 14 14 13 13 14 15 16 18 18 18 17 15 14 13 11 11 12 13 14 14 15 16 16 16 15 15 15 15 16 17 16 16 16 15 14 13 13 17 20 23 25 26
20 21 23 23 20 17 16 15 14 13 14 14 14 14 14 15 15 13 13 13 13 14 14 13 13 14 15 17 18 18 17 16 13 12 10 9 9 11 13 14 14 14 14 15 14 14 15 16 17 18 19 19 19 17 15 14 13 13 14 16 20 24 27
21 23 24 22 19 16 15 14 14 14 14 14 13 13 14 15 13 12 12 12 13 13 13 13 13 14 15 17 18 17 15 13 10 8 8 8 10 10 12 14 14 14 13 14 15 16 17 18 19 20 21 22 22 21 19 17 14 12 12 13 15 17 21
24 25 24 21 18 15 14 14 14 14 14 14 13 13 14 14 12 11 11 12 12 13 13 13 13 14 15 17 17 15 13 10 8 7 8 10 11 11 12 13 13 14 15 15 16 17 18 19 20 21 23 24 24 24 24 23 20 18 16 16 17 17 15
24 24 23 21 17 14 14 15 14 14 14 14 13 13 13 13 11 10 10 11 12 13 13 13 13 14 15 15 15 14 11 9 9 9 10 11 11 12 13 14 13 14 15 16 16 17 18 19 20 22 23 25 26 26 26 25 24 23 22 21 20 19 17
21 22 21 19 16 14 15 16 15 14 15 14 13 13 12 11 11 9 9 11 12 13 13 13 13 13 14 14 13 12 11 10 10 10 10 11 11 12 13 14 14 15 15 16 16 17 18 19 20 21 23 24 26 27 27 26 25 24 23 21 20 19 18
21 20 18 16 15 16 17 17 16 15 15 14 13 12 12 11 10 9 9 10 12 12 13 12 12 12 12 12 12 12 11 11 10 10 10 11 11 12 13 13 14 15 15 16 17 17 18 19 20 20 22 23 24 25 26 26 25 24 23 22 21 19 18
23 21 19 17 17 20 20 18 17 16 15 14 13 12 12 11 9 8 9 10 11 12 12 12 12 11 11 11 11 11 11 11 10 10 10 10 10 11 11 12 13 14 15 16 17 17 18 18 19 19 20 21 21 23 24 25 26 26 26 26 24 22 20
22 22 21 20 21 23 22 20 18 17 16 14 13 13 13 11 9 8 9 10 11 12 12 12 11 11 10 10 11 11 11 10 10 9 9 9 9 10 10 11 12 13 14 15 16 16 17 18 18 19 20 20 20 21 22 24 25 26 27 28 27 26 24
28 25 21 21 23 25 24 21 19 17 16 14 13 14 13 11 9 8 9 10 11 11 11 11 11 11 10 10 10 11 11 11 10 10 10 10 9 10 10 11 12 13 13 14 15 16 17 17 18 19 20 20 20 19 20 22 24 26 28 29 29 28 27
Wind_Direction
274 286 293 299 300 301 303 303 305 304 301 298 296 291 285 280 276 274 272 269 268 268 269 273 276 278 278 277 276 275 274 273 272 272 271 272 273 271 267 262 260 259 258 261 263 270 283 285 282 278 276 274 271 267 265 262 259 259 261 262 263 263 262
262 279 287 295 301 310 321 325 325 322 316 308 299 292 287 283 280 277 276 275 272 271 271 271 272 274 274 274 275 275 275 275 274 274 273 273 272 270 268 264 261 258 255 255 257 260 267 277 281 280 278 277 272 266 264 264 262 260 259 261 263 264 263
245 261 273 297 327 345 351 348 344 341 335 325 310 298 287 282 281 280 279 279 278 276 273 272 271 271 273 274 275 275 275 275 274 274 273 272 272 271 270 268 266 264 261 258 259 263 266 270 275 277 278 282 280 274 270 268 269 270 268 266 266 266 266
231 249 272 0 16 16 12 6 1 357 351 342 329 312 294 282 277 276 278 278 278 279 278 278 279 279 279 280 280 280 277 276 275 274 273 270 270 269 268 268 269 269 268 266 265 268 271 273 277 278 278 281 282 280 279 276 273 274 275 274 273 273 274
224 241 242 43 32 27 21 17 13 7 1 356 348 335 315 293 279 275 276 278 277 278 278 279 281 283 285 286 286 286 284 283 280 278 276 274 272 269 267 266 266 267 268 267 267 268 272 276 280 281 281 283 283 280 281 281 277 275 275 275 277 277 279
216 218 171 74 51 42 31 24 18 10 5 3 360 353 342 322 300 284 280 281 283 284 282 279 278 280 283 286 287 289 289 289 288 286 283 280 278 275 271 269 267 267 266 266 267 268 270 273 276 280 283 285 284 281 282 283 282 280 277 276 277 277 276
210 203 171 105 65 47 36 28 20 11 5 2 360 356 350 339 322 308 301 303 307 309 305 299 293 289 289 291 291 294 295 294 292 290 285 280 277 275 273 271 268 267 266 266 267 269 272 274 274 276 281 284 284 283 284 284 283 283 282 280 278 276 275
205 195 172 124 69 44 33 26 18 11 4 358 354 348 343 338 330 323 320 321 322 320 315 310 304 301 302 304 305 305 305 301 297 295 291 287 283 279 274 270 267 266 267 268 268 269 271 273 272 272 277 285 289 290 290 288 285 285 286 285 282 277 276
203 193 175 150 61 40 29 21 14 9 1 353 346 341 341 344 342 339 338 337 335 330 320 311 304 302 302 303 304 304 304 302 299 296 294 294 293 289 283 277 271 268 267 269 270 270 270 270 270 271 274 281 289 294 296 294 291 289 289 289 288 283 276
203 201 200 211 352 28 22 14 8 3 357 348 339 339 345 353 357 360 0 359 357 353 345 334 325 318 313 310 308 306 303 300 297 294 292 293 293 292 290 286 281 276 273 272 271 271 271 270 270 272 275 278 282 288 294 295 291 289 287 288 290 285 276
210 216 221 227 272 6 8 3 1 357 349 341 337 340 349 358 2 3 5 5 3 359 352 345 336 328 322 318 315 313 308 302 297 295 294 293 294 294 293 290 287 285 283 281 278 275 274 273 271 272 273 276 278 282 286 290 289 286 286 286 283 279 277
221 227 225 231 270 337 350 350 351 350 343 336 334 339 347 354 357 357 358 357 355 351 346 340 334 326 320 317 315 314 311 305 297 295 294 294 294 294 292 289 286 285 286 286 285 283 281 278 275 273 273 273 274 277 279 283 285 283 283 284 282 278 277
227 229 225 232 268 317 334 338 341 341 335 330 329 333 341 347 348 349 348 347 345 343 340 338 334 327 320 315 314 313 311 307 300 293 290 289 289 288 286 284 283 283 283 284 285 285 285 283 281 278 276 274 272 272 274 276 279 279 279 281 281 280 279
228 225 224 234 262 302 317 322 329 331 327 324 324 327 334 337 337 338 338 337 336 336 337 337 334 330 323 318 315 312 309 306 300 293 287 283 281 281 280 280 280 280 281 282 283 284 284 284 284 283 282 280 277 274 273 273 275 277 277 277 277 278 279
227 223 226 236 259 288 301 308 317 321 318 317 318 322 328 330 328 328 329 328 330 333 335 334 332 330 326 321 317 313 309 305 300 294 287 281 278 277 277 277 278 280 281 282 283 284 285 285 285 285 285 285 283 280 278 275 275 277 278 278 278 278 279
229 228 232 241 261 280 289 298 307 311 311 311 313 318 322 324 322 322 322 323 326 330 332 331 329 328 326 323 319 316 314 311 306 300 294 288 284 282 281 280 281 282 283 285 286 286 287 287 287 287 286 286 285 283 281 278 276 277 278 280 280 281 283
232 235 239 248 263 276 284 292 299 305 304 305 310 315 318 319 318 317 318 321 325 328 330 329 328 326 326 325 323 321 319 316 312 308 303 299 295 292 291 290 289 289 289 289 290 291 292 292 292 292 291 290 289 287 286 282 279 278 279 281 283 284 285
237 241 246 256 266 273 279 287 294 300 300 302 308 313 315 316 314 314 316 321 325 328 329 329 328 328 329 329 327 325 322 319 314 310 307 304 301 299 297 295 295 295 295 296 298 299 300 299 298 297 297 297 297 296 295 292 289 286 284 285 287 287 286
237 242 250 258 265 270 275 282 291 297 298 302 307 309 311 311 310 313 316 321 326 328 329 329 330 331 331 330 328 326 324 322 318 314 309 305 303 300 298 297 297 297 298 300 302 303 303 302 301 302 303 305 305 305 304 301 297 293 290 289 289 290 289
237 242 251 257 261 266 271 279 289 295 298 301 306 307 306 306 308 312 316 322 327 328 329 330 331 332 331 330 328 326 326 325 322 319 314 307 302 298 297 299 300 301 301 301 301 301 300 301 300 301 304 306 307 306 305 303 298 298 301 299 296 294 294
238 243 251 256 258 262 268 276 285 292 296 300 303 304 303 303 306 311 317 323 326 328 329 330 331 331 331 331 329 326 325 324 321 320 316 311 305 301 299 300 302 303 304 303 303 303 303 302 299 298 301 305 307 305 304 301 297 299 304 302 296 294 294
234 243 248 252 256 260 265 273 282 288 292 296 298 299 300 302 306 312 319 324 326 328 330 331 331 333 333 332 328 324 323 321 319 318 316 315 314 312 310 308 307 309 310 310 311 313 312 306 300 299 303 306 306 303 300 299 297 295 295 292 291 291 291
230 242 246 249 254 258 262 270 279 283 286 289 291 293 297 301 308 315 321 324 327 330 333 333 333 333 333 330 326 324 322 321 320 318 317 319 319 318 316 315 319 325 324 320 318 318 316 311 307 304 303 301 297 293 293 294 294 295 294 291 289 289 289
227 238 243 246 250 254 261 270 276 277 279 281 284 289 295 302 312 319 323 326 329 333 335 335 333 333 333 331 328 327 325 323 322 320 319 321 321 318 315 316 324 331 331 326 322 317 311 306 303 298 293 289 285 282 283 285 287 289 290 289 288 287 286
224 233 239 243 246 252 263 271 273 273 274 276 280 288 297 307 317 322 324 327 331 336 336 335 335 337 338 336 336 335 332 329 325 322 322 324 324 321 316 316 328 334 331 326 320 313 306 299 295 292 290 287 284 279 277 278 280 283 283 284 285 284 284
222 231 238 240 244 253 265 271 272 271 271 275 282 291 302 314 321 323 323 327 332 336 337 337 339 342 342 343 346 344 339 334 329 327 331 333 333 330 326 327 333 333 326 321 320 319 316 312 307 305 302 299 296 292 286 278 273 272 275 278 280 282 285
223 231 237 238 244 257 268 270 269 267 269 277 285 295 309 318 322 321 322 328 334 337 339 341 343 344 345 349 353 349 344 339 334 335 340 345 348 348 342 336 334 331 328 329 331 330 328 326 325 325 326 325 326 326 318 302 282 270 269 273 276 279 281
224 231 234 235 242 258 267 265 263 266 272 279 286 298 312 319 319 318 320 328 335 338 341 344 345 345 348 353 354 351 346 342 339 341 347 353 360 358 347 341 341 343 345 346 344 343 345 350 353 353 354 355 355 355 352 344 327 299 282 276 274 272 271
226 228 229 233 242 255 262 260 261 268 274 279 287 300 313 318 316 313 317 328 335 337 341 346 346 345 349 353 355 352 347 344 343 348 353 359 6 2 352 352 358 360 358 357 359 5 11 12 10 7 7 7 6 3 358 353 346 332 314 298 288 281 275
228 225 223 229 245 256 257 256 261 268 273 278 288 302 313 316 313 310 317 329 335 336 340 346 347 347 350 353 355 353 350 351 357 4 10 16 19 14 3 1 5 6 6 8 13 20 21 17 13 11 11 12 11 7 3 358 351 341 331 326 321 307 291
227 226 226 233 245 253 252 255 261 266 271 280 290 302 311 312 308 309 319 330 334 334 338 345 347 349 353 354 355 357 358 7 24 31 32 29 24 17 12 8 9 12 17 19 20 23 22 19 15 14 14 14 14 11 8 2 356 350 347 347 348 342 323
230 230 234 239 241 244 248 254 259 264 272 280 289 300 307 305 300 307 320 329 333 333 335 343 347 351 355 355 357 3 10 22 37 40 39 35 26 20 20 19 19 22 23 22 23 24 23 20 18 16 15 15 14 14 11 6 0 357 355 352 349 347 344
233 226 233 239 239 240 246 250 256 263 271 278 285 295 300 294 292 304 319 327 331 331 333 340 346 350 355 356 359 10 17 25 34 36 36 35 30 26 27 27 27 28 26 24 25 24 22 19 17 16 16 15 14 13 10 8 6 2 359 356 351 346 343
226 224 240 245 237 239 245 249 255 262 269 275 282 289 289 285 288 304 320 327 329 328 330 336 342 348 353 355 0 11 17 21 28 32 33 33 31 28 26 25 26 26 23 22 21 19 18 16 14 14 14 14 13 11 9 7 8 7 4 3 360 353 347
226 231 246 243 233 238 244 246 252 259 266 273 279 282 280 279 287 305 321 328 326 324 326 331 336 342 347 350 354 2 9 13 19 24 26 27 25 21 18 15 15 16 15 14 13 12 12 12 11 11 11 11 11 10 8 7 7 8 8 7 6 3 359
244 242 242 235 232 239 243 244 249 257 264 270 274 273 272 274 285 305 322 327 323 320 321 325 328 332 336 339 341 347 354 358 1 5 8 10 9 7 4 2 1 2 3 4 3 2 3 3 4 4 4 5 6 7 7 7 7 8 9 9 9 8 5
250 246 239 232 232 238 242 243 248 256 261 265 267 266 266 269 280 302 322 325 320 315 315 318 321 324 327 331 333 338 343 345 346 347 350 353 354 353 352 353 353 354 356 358 356 353 352 352 353 355 355 357 359 2 4 7 8 9 10 10 10 9 6